Grand Island, NE

9:16 PM CDT on April 26, 2017 (GMT -0500)
Central Nebraska Regional

Weather History for KGRI - January, 2012

Change the Weather History Date:

Tuesday, January 3, 2012

  Actual Average Record
Temperature  
Mean Temperature 40 °F 25 °F  
Max Temperature 57 °F 35 °F 61 °F (1933)
Min Temperature 22 °F 14 °F -15 °F (1959)
Degree Days  
Heating Degree Days 25 40  
Month to date heating degree days 100 120  
Since 1 July heating degree days 2432 2639  
Cooling Degree Days 0 0  
Month to date cooling degree days 0 0  
Year to date cooling degree days 0 0  
Moisture  
Dew Point 20 °F    
Average Humidity 51    
Maximum Humidity 69    
Minimum Humidity 32    
Precipitation  
Precipitation 0.00 in 0.02 in 0.56 in (1971)
Month to date precipitation 0.00 0.05  
Year to date precipitation 0.00 0.05  
Snow  
Snow 0.00 in 0.10 in 5.40 in (1971)
Month to date snowfall 0.0 0.5  
Since 1 July snowfall 8.3 9.8  
Snow Depth 0.00 in    
Sea Level Pressure  
Sea Level Pressure 30.14 in    
Wind  
Wind Speed 13 mph (SW)    
Max Wind Speed 22 mph    
Max Gust Speed 31 mph    
Visibility 10 miles    
Events      
T = Trace of Precipitation, MM = Missing Value Source: NWS Daily Summary

Daily Weather History Graph

Daily Weather History Graph

Search for Another Location

Airport or City:

Trip Planner

Search our weather history database for the weather conditions in past years. The results will help you decide how hot, cold, wet, or windy it might be!

Date:

Astronomy

Jan. 03, 2012 Rise Set
Actual Time 7:58 AM CST 5:17 PM CST
Civil Twilight 7:27 AM CST 5:48 PM CST
Nautical Twilight 6:52 AM CST 6:22 PM CST
Astronomical Twilight 6:19 AM CST 6:55 PM CST
Moon 1:06 PM CST (1/3) 2:49 AM CST (1/3)
Length of Visible Light 10h 20m
Length of Day
9h 18m
Waxing Gibbous, 73% of the Moon is Illuminated
Jan 3
Waxing Gibbous
Jan 9
Full
Jan 16
Last Quarter
Jan 23
New
Jan 30
First Quarter

Hourly Weather History & Observations

Time (CST) Temp. Windchill Dew Point Humidity Pressure Visibility Wind Dir Wind Speed Gust Speed Precip Events Conditions
12:53 AM 23.0 °F 11.7 °F 3.9 °F 44% 30.40 in 10.0 mi South 11.5 mph - N/A   Clear
1:53 AM 23.0 °F 10.6 °F 8.1 °F 53% 30.37 in 10.0 mi South 13.8 mph - N/A   Clear
2:53 AM 23.0 °F 11.1 °F 10.0 °F 58% 30.34 in 10.0 mi South 12.7 mph - N/A   Clear
3:53 AM 24.8 °F 12.4 °F 12.2 °F 59% 30.24 in 10.0 mi South 15.0 mph - N/A   Clear
4:53 AM 25.0 °F 12.6 °F 12.0 °F 58% 30.27 in 10.0 mi South 15.0 mph - N/A   Clear
5:53 AM 25.0 °F 14.2 °F 14.0 °F 63% 30.25 in 10.0 mi South 11.5 mph - N/A   Clear
6:53 AM 26.1 °F 14.0 °F 15.1 °F 63% 30.22 in 10.0 mi South 15.0 mph - N/A   Clear
7:53 AM 26.6 °F 14.7 °F 17.6 °F 69% 30.11 in 10.0 mi SSW 15.0 mph 20.7 mph N/A   Clear
8:53 AM 28.0 °F 15.7 °F 19.0 °F 69% 30.17 in 10.0 mi SSW 17.3 mph 24.2 mph N/A   Clear
9:53 AM 32.0 °F 21.2 °F 21.0 °F 64% 30.12 in 10.0 mi SSW 16.1 mph 21.9 mph N/A   Clear
10:53 AM 39.0 °F 29.3 °F 23.0 °F 53% 30.10 in 10.0 mi SW 19.6 mph - N/A   Clear
11:53 AM 44.1 °F 36.8 °F 24.1 °F 45% 30.04 in 10.0 mi SW 16.1 mph 27.6 mph N/A   Clear
12:53 PM 48.0 °F - 25.0 °F 41% 30.01 in 10.0 mi WSW 13.8 mph 24.2 mph N/A   Clear
1:53 PM 53.1 °F - 26.1 °F 35% 29.97 in 10.0 mi WSW 13.8 mph - N/A   Clear
2:53 PM 55.9 °F - 26.1 °F 32% 29.96 in 10.0 mi SW 10.4 mph - N/A   Clear
3:53 PM 52.0 °F - 28.0 °F 40% 29.98 in 10.0 mi SSW 4.6 mph - N/A   Clear
4:53 PM 48.9 °F - 28.9 °F 46% 30.00 in 10.0 mi West 5.8 mph - N/A   Clear
5:53 PM 42.1 °F 37.1 °F 27.0 °F 55% 30.03 in 10.0 mi WNW 8.1 mph - N/A   Clear
6:53 PM 37.9 °F 32.1 °F 24.1 °F 57% 30.07 in 10.0 mi WNW 8.1 mph - N/A   Clear
7:53 PM 37.9 °F 32.1 °F 23.0 °F 55% 30.09 in 10.0 mi WNW 8.1 mph - N/A   Clear
8:53 PM 39.9 °F 33.4 °F 23.0 °F 51% 30.12 in 10.0 mi NW 10.4 mph - N/A   Clear
9:53 PM 46.9 °F - 23.0 °F 39% 30.14 in 10.0 mi NNW 18.4 mph 26.5 mph N/A   Clear
10:53 PM 46.0 °F 40.6 °F 21.9 °F 39% 30.15 in 10.0 mi NW 11.5 mph - N/A   Clear
11:53 PM 39.9 °F 32.1 °F 21.9 °F 49% 30.17 in 10.0 mi WNW 13.8 mph - N/A   Clear